Location: G?julap?du
(16.5372°N, 81.0979°E)
Time: 09:28:32
(UTC+00:00)

GPS 2-17 Rocket1 - Pass Details

Date: 14 April 2026
Orbit: 544 x 613 km, 20.3° (Epoch: 11 May)

Event Time Altitude Azimuth Distance (km) Brightness Sun altitude
Rises 14:01:44 0° 283° (WNW) 2,858 8.3 -17.4°
Reaches altitude 10° 14:04:06 10° 286° (WNW) 1,954 6.9 -17.9°
Maximum altitude 14:08:40 67° 8° (N) 656 3.1 -19.0°
Enters shadow 14:10:07 41° 77° (ENE) 881 3.4 -19.3°
